Weather History for Pensacola NAS, FL

Change the Weather History Date:

Thursday, January 31, 2013

  Actual Average Record
Temperature  
Mean Temperature 46 °F -  
Max Temperature 59 °F 59 °F 53 °F (2014)
Min Temperature 34 °F 43 °F 30 °F (2014)
Degree Days  
Heating Degree Days 18    
Moisture  
Dew Point 31 °F    
Average Humidity 59    
Maximum Humidity 93    
Minimum Humidity 27    
Precipitation  
Precipitation 0.00 in - - ()
Sea Level Pressure  
Sea Level Pressure 30.24 in    
Wind  
Wind Speed 6 mph (NW)    
Max Wind Speed 13 mph    
Max Gust Speed 22 mph    
Visibility 10 miles    
Events      
Averages and records for this station are not official NWS values.
T = Trace of Precipitation, MM = Missing Value Source: NWS Daily Summary

Daily Weather History Graph

Daily Weather History Graph

Search for Another Location

Airport:

Trip Planner

Search our weather history database for the weather conditions in past years. The results will help you decide how hot, cold, wet, or windy it might be!

Date:

Astronomy

Jan. 31, 2013 Rise Set
Actual Time 6:40 AM CST 5:25 PM CST
Civil Twilight 6:15 AM CST 5:50 PM CST
Nautical Twilight 5:46 AM CST 6:19 PM CST
Astronomical Twilight 5:18 AM CST 6:47 PM CST
Moon 10:00 PM CST (1/31) 9:03 AM CST (1/31)
Length of Visible Light 11h 35m
Length of Day
10h 44m
Waning Gibbous, 79% of the Moon is Illuminated
Jan 31
Waning Gibbous
Feb 3
Last Quarter
Feb 10
New
Feb 17
First Quarter
Feb 25
Full

Hourly Weather History & Observations

Time (CST) Temp. Windchill Dew Point Humidity Pressure Visibility Wind Dir Wind Speed Gust Speed Precip Events Conditions
12:56 AM 43.0 °F 38.2 °F 30.9 °F 62% 30.13 in 10.0 mi NW 8.1 mph 18.4 mph N/A   Clear
1:56 AM 43.0 °F 36.8 °F 30.0 °F 60% 30.14 in 10.0 mi NW 11.5 mph 21.9 mph N/A   Clear
2:56 AM 41.0 °F 37.1 °F 30.9 °F 67% 30.16 in 10.0 mi Variable 5.8 mph - N/A   Clear
3:56 AM 41.0 °F 38.0 °F 30.0 °F 65% 30.16 in 10.0 mi NW 4.6 mph - N/A   Clear
4:56 AM 39.9 °F 36.7 °F 30.9 °F 70% 30.17 in 10.0 mi NW 4.6 mph - N/A   Clear
5:56 AM 36.0 °F - 30.9 °F 82% 30.19 in 10.0 mi Calm Calm - N/A   Clear
6:56 AM 34.0 °F - 30.9 °F 89% 30.21 in 10.0 mi Calm Calm - N/A   Clear
7:56 AM 42.1 °F - 33.1 °F 70% 30.25 in 10.0 mi Calm Calm - N/A   Clear
8:56 AM 46.9 °F - 32.0 °F 56% 30.27 in 10.0 mi NW 5.8 mph - N/A   Clear
9:56 AM 50.0 °F - 28.0 °F 43% 30.27 in 10.0 mi NNW 11.5 mph 17.3 mph N/A   Clear
10:56 AM 52.0 °F - 27.0 °F 38% 30.28 in 10.0 mi NNW 12.7 mph 20.7 mph N/A   Clear
11:56 AM 55.0 °F - 26.1 °F 33% 30.27 in 10.0 mi NNW 8.1 mph 18.4 mph N/A   Clear
12:56 PM 57.9 °F - 26.1 °F 30% 30.24 in 10.0 mi NNW 10.4 mph 19.6 mph N/A   Clear
1:56 PM 59.0 °F - 25.0 °F 27% 30.22 in 10.0 mi North 10.4 mph 16.1 mph N/A   Partly Cloudy
2:56 PM 57.9 °F - 26.1 °F 30% 30.22 in 10.0 mi NW 5.8 mph - N/A   Partly Cloudy
3:56 PM 57.9 °F - 27.0 °F 31% 30.23 in 10.0 mi NNW 4.6 mph - N/A   Partly Cloudy
4:56 PM 54.0 °F - 32.0 °F 43% 30.24 in 10.0 mi Calm Calm - N/A   Scattered Clouds
5:56 PM 43.0 °F - 36.0 °F 76% 30.26 in 10.0 mi Calm Calm - N/A   Scattered Clouds
6:56 PM 46.0 °F 43.1 °F 33.1 °F 61% 30.28 in 10.0 mi West 5.8 mph - N/A   Partly Cloudy
7:56 PM 46.9 °F - 37.0 °F 68% 30.29 in 10.0 mi West 3.5 mph - N/A   Scattered Clouds
8:56 PM 48.9 °F - 37.9 °F 66% 30.29 in 10.0 mi West 3.5 mph - N/A   Partly Cloudy
9:56 PM 44.1 °F 42.5 °F 37.9 °F 79% 30.29 in 10.0 mi West 3.5 mph - N/A   Clear
10:56 PM 46.9 °F - 37.9 °F 71% 30.32 in 10.0 mi West 3.5 mph - N/A   Clear
11:56 PM 41.0 °F - 39.0 °F 93% 30.32 in 10.0 mi Calm Calm - N/A   Clear